EST,Max TemperatureF,Mean TemperatureF,Min TemperatureF,Max Dew PointF,MeanDew PointF,Min DewpointF,Max Humidity, Mean Humidity, Min Humidity, Max Sea Level PressureIn, Mean Sea Level PressureIn, Min Sea Level PressureIn, Max VisibilityMiles, Mean VisibilityMiles, Min VisibilityMiles, Max Wind SpeedMPH, Mean Wind SpeedMPH, Max Gust SpeedMPH,PrecipitationIn, CloudCover, Events, WindDirDegrees
2012-11-1,49,45,40,41,36,28,100,73,46,29.82,29.77,29.74,10,9,5,21,12,25,0.01,7,Rain,270
2012-11-2,46,42,38,31,29,27,65,57,49,30.09,29.95,29.81,10,10,10,17,8,25,0.00,6,,317
2012-11-3,48,45,41,31,30,28,65,59,53,30.19,30.13,30.08,10,10,10,9,4,12,0.00,7,,348
2012-11-4,46,39,32,33,30,29,92,73,53,30.17,30.15,30.13,10,10,10,12,5,15,0.00,7,,4
2012-11-5,48,39,29,30,28,26,92,69,45,30.21,30.17,30.12,10,9,7,9,3,14,0.00,1,,44
2012-11-6,49,40,30,29,27,24,82,64,45,30.14,30.04,29.93,10,10,10,12,4,14,0.00,2,,77
2012-11-7,54,44,33,32,29,27,82,60,38,30.10,29.98,29.91,10,10,8,16,6,21,0.00,4,,357
2012-11-8,50,40,29,33,31,27,100,76,52,30.24,30.18,30.12,10,8,4,14,2,16,0.00,1,,309
2012-11-9,57,44,31,39,34,29,92,70,47,30.28,30.20,30.15,10,8,5,13,5,17,0.00,1,,169
2012-11-10,71,60,48,45,40,37,80,57,33,30.22,30.18,30.12,10,10,7,21,9,26,0.03,3,Rain-Thunderstorm,179
2012-11-11,69,60,51,38,36,33,59,44,28,30.29,30.20,30.11,10,10,10,24,10,30,0.00,4,,171
2012-11-12,63,48,33,54,42,27,93,64,34,30.39,30.14,30.03,10,8,2,30,15,37,0.60,6,Rain,241
2012-11-13,41,35,28,27,24,21,92,70,48,30.54,30.47,30.39,10,10,10,12,5,15,0.00,3,,278
2012-11-14,43,35,26,27,25,22,85,68,51,30.57,30.50,30.41,10,10,10,15,5,18,0.00,3,,45
2012-11-15,49,38,26,31,27,23,85,64,42,30.40,30.36,30.30,10,10,8,8,4,10,0.00,3,,360
2012-11-16,51,41,30,36,32,28,92,70,48,30.50,30.44,30.36,10,8,4,12,4,14,0.00,1,,10
2012-11-17,58,43,28,32,29,26,92,63,33,30.59,30.53,30.48,10,8,4,14,4,18,0.00,0,,51
2012-11-18,58,45,32,29,27,24,75,52,28,30.51,30.46,30.41,10,10,10,9,3,12,0.00,1,,86
2012-11-19,56,43,30,36,32,26,85,64,43,30.40,30.32,30.20,10,10,10,7,1,8,0.00,5,,182
2012-11-20,55,46,37,38,36,34,85,66,47,30.19,30.15,30.10,10,10,9,9,1,9,0.00,7,,98
2012-11-21,62,51,39,40,38,36,92,67,42,30.25,30.20,30.14,10,10,7,6,1,9,0.00,2,,280
2012-11-22,63,48,33,40,36,32,96,70,43,30.24,30.15,30.00,10,9,6,14,5,18,0.00,3,,179
2012-11-23,54,43,32,46,33,18,77,64,50,30.14,29.98,29.89,10,10,10,31,17,40,T,7,Rain,255
2012-11-24,33,32,30,25,21,18,78,67,56,30.19,30.14,30.10,10,9,4,21,14,25,0.02,8,Snow,275
2012-11-25,45,37,29,27,22,19,69,57,45,30.12,30.00,29.90,10,10,10,21,8,25,0.00,6,,218
2012-11-26,49,40,31,30,26,23,85,62,38,30.24,30.16,30.04,10,10,9,14,2,18,0.00,5,,351
2012-11-27,40,33,26,32,26,19,89,70,50,30.35,30.29,30.23,10,9,2,15,6,18,T,5,Snow,347
2012-11-28,42,32,22,24,21,19,88,64,39,30.41,30.37,30.31,10,9,5,15,5,20,0.00,1,,233
2012-11-29,47,36,25,26,23,21,88,63,38,30.42,30.35,30.26,10,9,6,16,5,20,0.00,3,,175
2012-11-30,57,46,34,37,31,25,70,55,39,30.27,30.23,30.16,10,10,10,18,6,25,0.00,6,,184